This is the latest recevied weather packets stored in our database for station/object LU9FW-5. If no packets are shown the sender has not sent any weather packets the latest 1 day(s).
| Time | Temp. | Humidity | Pressure | Rain* | Wind** | Luminosity | Snow |
|---|---|---|---|---|---|---|---|
| 1778156782 | 13.89° C | 72% | 999.9 hPa | 0 mm | - | - | - |
| 1778156642 | 13.89° C | 71% | 999.7 hPa | 0 mm | - | - | - |
| 1778156563 | 13.33° C | 70% | 999.9 hPa | 0 mm | - | - | - |
| 1778156493 | 13.89° C | 71% | 1000 hPa | 0 mm | - | - | - |
| 1778156433 | 13.89° C | 70% | 1000 hPa | 0 mm | - | - | - |
| 1778156144 | 13.33° C | 73% | 1000 hPa | 0 mm | - | - | - |
| 1778155016 | 13.89° C | 72% | 999.3 hPa | 0 mm | - | - | - |
| 1778154884 | 13.89° C | 72% | 999.1 hPa | 0 mm | - | - | - |
| 1778154847 | 13.33° C | 70% | 999.1 hPa | 0 mm | - | - | - |
| 1778154587 | 13.89° C | 72% | 998.9 hPa | 0 mm | - | - | - |
| 1778154519 | 13.89° C | 71% | 998.8 hPa | 0 mm | - | - | - |
| 1778154456 | 13.89° C | 72% | 998.7 hPa | 0 mm | - | - | - |
| 1778154390 | 13.89° C | 72% | 999.1 hPa | 0 mm | - | - | - |
| 1778154239 | 13.89° C | 72% | 999 hPa | 0 mm | - | - | - |
| 1778153826 | 13.89° C | 73% | 998.3 hPa | 0 mm | - | - | - |
| 1778152761 | 13.89° C | 74% | 997.9 hPa | 0 mm | - | - | - |
| 1778152698 | 13.89° C | 73% | 997.9 hPa | 0 mm | - | - | - |
| 1778152612 | 13.89° C | 73% | 997.6 hPa | 0 mm | - | - | - |
| 1778152415 | 13.89° C | 73% | 997.5 hPa | 0 mm | - | - | - |
| 1778152195 | 13.33° C | 76% | 997.5 hPa | 0 mm | - | - | - |
| 1778152133 | 13.89° C | 75% | 997.3 hPa | 0 mm | - | - | - |
| 1778152055 | 13.89° C | 75% | 997.5 hPa | 0 mm | - | - | - |
| 1778151773 | 13.89° C | 73% | 998 hPa | 0 mm | - | - | - |
| 1778151703 | 13.89° C | 73% | 997.7 hPa | 0 mm | - | - | - |
| 1778151642 | 13.89° C | 73% | 997.6 hPa | 0 mm | - | - | - |
* Rain latest hour (hover to see other rain measurements)
** Current wind speed in m/s (hover to see current wind gust speed)